Regional Weather Roundup
Issued by NWS

Home | Current Version | Previous Version | Text Only | Print | Product List | Glossary Off
Versions: 1 2 3 4 5 6 7 8 9 10 11 12 13 14 15 16 17 18 19 20 21 22 23 24 25 26 27 28 29 30 31 32 33 34 35 36 37 38 39 40 41 42 43 44 45 46 47 48 49 50

000
ASUS43 KMKX 240821
RWRWI

WISCONSIN REGIONAL WEATHER ROUNDUP
NATIONAL WEATHER SERVICE MILWAUKEE/SULLIVAN WI
300 AM CDT MON APR 24 2017

NOTE: "FAIR" INDICATES FEW OR NO CLOUDS BELOW 12,000 FEET WITH NO
SIGNIFICANT WEATHER AND/OR OBSTRUCTIONS TO VISIBILITY.

WIZ001-002-006>008-014>016-023>028-240900-
NORTHWEST WISCONSIN

CITY           SKY/WX    TMP DP  RH WIND       PRES   REMARKS
SUPERIOR ARPT  CLOUDY    35  29  80 E22G32    29.99F WCI  23
ASHLAND        PTCLDY    33  26  75 NE10      30.03F WCI  25
HAYWARD        CLOUDY    36  29  75 NE5       29.94F WCI  32
SIREN          CLOUDY    38  31  78 NE8       29.90F WCI  32
CUMBERLAND     CLOUDY    41  36  81 SE8       29.90F
RICE LAKE      CLOUDY    43  37  79 SE17G23   29.92F
CHETEK         CLOUDY    42  37  85 SE13G18   29.93F
LADYSMITH      CLOUDY    40  33  76 SE9       29.97F WCI  34
EAU CLAIRE     CLOUDY    44  38  79 SE14G20   29.93F
MENOMONIE      CLOUDY    46  40  80 E8        29.92S
NEW RICHMOND   PTCLDY    46  40  78 SE9       29.87F
OSCEOLA        CLOUDY    45  39  81 E7        29.89F
$$

WIZ003>005-009-010-017-018-240900-
NORTH CENTRAL WISCONSIN

CITY           SKY/WX    TMP DP  RH WIND       PRES   REMARKS
MANITOWISH WTR CLOUDY    32  23  71 E7        30.00S WCI  25
ARBOR VITAE    PTCLDY    34  24  68 E7        29.99F WCI  28
WOODRUFF       PTCLDY    34  24  68 E7        29.99F WCI  28
RHINELANDER    PTCLDY    35  23  61 SE8       30.00F WCI  29
EAGLE RIVER    CLOUDY    31  12  45 SE9       30.01F WCI  23
LAND O LAKES   CLOUDY    31  13  47 SE9       30.03F WCI  23
PHILLIPS       PTCLDY    35  28  75 SE10      29.97S WCI  27
TOMAHAWK       PTCLDY    33  25  72 SE3       30.01F
MEDFORD        PTCLDY    34  29  82 SE9G17    29.98F WCI  27
MERRILL        CLOUDY    34  25  69 SE7       30.02F WCI  28
$$

WIZ029-030-035-036-043>047-240900-
CENTRAL WISCONSIN

CITY           SKY/WX    TMP DP  RH WIND       PRES   REMARKS
WAUSAU         PTCLDY    34  26  72 SE12      30.01F WCI  25
MOSINEE        MOCLDY    32  30  93 E9        30.03F WCI  24
MARSHFIELD     CLOUDY    36  30  79 E12       29.99F WCI  28
STEVENS POINT  CLOUDY    33  28  80 E7        30.03F WCI  27
WAUPACA        CLEAR     38  28  68 NE6       30.06S WCI  33
WAUTOMA        PTCLDY    36  29  75 NE5       30.05S WCI  32
WISC RAPIDS    CLOUDY    36  29  75 E7        30.03F WCI  30
CAMP DOUGLAS   PTCLDY    38  35  86 E9        30.01S WCI  32
$$

WIZ011>013-019>022-031-037>040-048>050-240900-
NORTHEAST WISCONSIN

CITY           SKY/WX    TMP DP  RH WIND       PRES   REMARKS
ANTIGO         CLOUDY    31  22  71 SE9       30.03F WCI  22
SHAWANO        CLEAR     37  29  75 E9        30.07F WCI  30
OCONTO         PTCLDY    35  27  70 E5        30.08F WCI  31
STURGEON BAY   CLEAR     35  29  78 E10       30.07F WCI  27
GREEN BAY      CLEAR     37  30  75 E9        30.06F WCI  30
MANITOWOC      CLEAR     37  30  75 NE6       30.06F WCI  32
APPLETON       CLEAR     36  27  69 E12       30.03F WCI  27
CLINTONVILLE   PTCLDY    34  28  80 E3        30.06F
OSHKOSH        PTCLDY    39  31  72 E7        30.04F WCI  34
$$

WIZ032>034-041-042-053>061-240900-
SOUTHWEST WISCONSIN

CITY           SKY/WX    TMP DP  RH WIND       PRES   REMARKS
LA CROSSE      CLEAR     51  42  71 E12       29.93F
SPARTA         CLEAR     42  38  86 E9        29.98F
VIROQUA        CLEAR     45  40  85 E9        29.96S
BOSCOBEL       CLEAR     45  40  82 NE3       29.97F
PRAIRIE DU CHI CLEAR     47  35  62 SE3       29.95F
PLATTEVILLE    CLEAR     52  34  50 CALM      29.97F
$$

WIZ056-057-062-063-064-067-068-240900-
SOUTH CENTRAL WISCONSIN

CITY           SKY/WX    TMP DP  RH WIND       PRES   REMARKS
REEDSBURG      CLEAR     38  37  96 E5        29.99F WCI  35
BARABOO/DELLS  CLEAR     37  34  89 NE6       30.00F WCI  33
LONE ROCK      CLEAR     43  38  82 E9        29.98F
MINERAL POINT    N/A     48  36  61 E7        29.97F
MADISON        CLEAR     37  33  85 E5        30.01F WCI  33
MIDDLETON      CLEAR     41  38  88 E3        30.01F
WATERTOWN      CLEAR     35  35 100 CALM      30.02F
MONROE         CLEAR     45  37  76 E7        29.98F
JANESVILLE     CLEAR     37  37 100 NE5       30.00F WCI  34
$$

WIZ051-052-058>065-066-070>072-240900-
SOUTHEAST WISCONSIN

CITY           SKY/WX    TMP DP  RH WIND       PRES   REMARKS
MILWAUKEE      PTCLDY    40  35  83 N8        30.03F WCI  34
WAUKESHA       CLEAR     34  32  93 NE3       30.03F
MILWAUKEE/TIMM CLEAR     36  32  87 NE5       30.04F WCI  32
RACINE         CLEAR     39  35  86 N9        30.04F WCI  33
KENOSHA        CLEAR     35  33  92 NE5       30.02F WCI  31
FOND DU LAC    PTCLDY    37  29  72 NE8       30.04F WCI  31
SHEBOYGAN      CLEAR     36  30  79 NE10      30.04F WCI  28
WEST BEND      CLEAR     36  32  87 NE3       30.03F
JUNEAU         PTCLDY    36  32  86 NE5       30.03F WCI  32
$$

LSZ147-162-240900-
LAKE SUPERIOR

STATION/POSITION TIME  TEMP    WIND        PRES    WAVE
                       AIR SEA DIR/SP/G            HT/PER
                 (UTC) (F)     (DEG/KT/KT) (MB)    (FT/S)
DEVILS ISLAND    0800   34      70/ 26/ 28 1018.6F
SAXON HARBOR     0730   36      80/  7/ 10 1016.9S
$$

LMZ867-665-643>646-240900-
LAKE MICHIGAN

STATION/POSITION TIME  TEMP    WIND        PRES    WAVE
                       AIR SEA DIR/SP/G            HT/PER
                 (UTC) (F)     (DEG/KT/KT) (MB)    (FT/S)
CHAMBERS ISLAND  0740   35      50/ 10/ 14 1018.6F
N MID LAKE BUOY  0750   35 37   80/ 16/ 17 1020.2F   3/ 4
NORTHPORT PIER   0740   35      80/ 14/ 17 1019.0F
KEWAUNEE LAKESHO 0754   38      50/ 12/ 16 1017.9F
SHEBOYGAN LAKESH 0800   39      10/ 16/ 18 1017.7F
PORT WASHINGTON  0740   39     350/  5/  7 1017.9F
MILWAUKEE LAKESH 0800   41      10/  9/ 11   N/A
S MID LAKE BUOY  0750   40 40   30/  4/  4 1017.4F   3/ 7
KENOSHA   LAKESH 0800   41      30/ 12/ 14 1016.6
$$

TC  - TEMPERATURE IN CELSIUS
VSB - VISIBILITY IN STATUTE MILES
WCI - WIND CHILL INDEX
HX  - HEAT INDEX





USA.gov is the U.S. government's official web portal to all federal, state and local government web resources and services.